When you browse on this site, cookies collect data to enhance your experience and personalize the content and advertising you see.
Visit our Privacy Policy to learn more. By continuing to use the site, you agree to this use of cookies and data.
  • In France
  • List of Countries
  • For 7 days
  • Water Temperature
  • Satellite Maps
  • Weather Map
  • Weather Widgets
  • user-avatar
    Login

    Hourly Weather Chipping Sodbury

    Today, 16 June, Sunday

    Time Temperature Precipitation Wind Pressure Humidity
    00:00 +8°C° 0 mm 3 mps 751 mmHg 93%
    01:00 +8°C° 0 mm 3 mps 750 mmHg 94%
    02:00 +8°C° 0 mm 2 mps 750 mmHg 95%
    03:00 +8°C° 0 mm 2 mps 750 mmHg 96%
    04:00 +9°C° 0 mm 3 mps 750 mmHg 95%
    05:00 +10°C° 0 mm 3 mps 750 mmHg 94%
    06:00 +11°C° 0 mm 4 mps 750 mmHg 92%
    07:00 +12°C° 0.2 mm 4 mps 750 mmHg 91%
    08:00 +13°C° 0.2 mm 5 mps 751 mmHg 90%
    09:00 +13°C° 0.2 mm 5 mps 751 mmHg 89%
    10:00 +14°C° 0.5 mm 6 mps 751 mmHg 89%
    11:00 +14°C° 0.5 mm 7 mps 751 mmHg 89%
    12:00 +15°C° 0.5 mm 7 mps 751 mmHg 88%
    13:00 +14°C° 0.4 mm 7 mps 752 mmHg 89%
    14:00 +14°C° 0.4 mm 7 mps 752 mmHg 89%
    15:00 +14°C° 0.4 mm 7 mps 752 mmHg 89%
    16:00 +14°C° 0.1 mm 7 mps 752 mmHg 88%
    17:00 +14°C° 0.1 mm 6 mps 752 mmHg 87%
    18:00 +14°C° 0.1 mm 6 mps 752 mmHg 87%
    19:00 +13°C° 0 mm 6 mps 752 mmHg 88%
    20:00 +12°C° 0 mm 5 mps 752 mmHg 90%
    21:00 +12°C° 0 mm 5 mps 753 mmHg 91%
    22:00 +10°C° 0 mm 5 mps 753 mmHg 93%
    23:00 +10°C° 0 mm 5 mps 753 mmHg 94%

    Tomorrow, 17 June, Monday

    Time Temperature Precipitation Wind Pressure Humidity
    00:00 +10°C° 0 mm 4 mps 753 mmHg 95%
    01:00 +10°C° 0 mm 4 mps 752 mmHg 95%
    02:00 +10°C° 0 mm 4 mps 752 mmHg 95%
    03:00 +10°C° 0 mm 4 mps 752 mmHg 95%
    04:00 +11°C° 0 mm 4 mps 752 mmHg 93%
    05:00 +10°C° 0 mm 5 mps 752 mmHg 92%
    06:00 +12°C° 0 mm 5 mps 752 mmHg 91%
    07:00 +13°C° 0 mm 5 mps 752 mmHg 88%
    08:00 +14°C° 0 mm 5 mps 753 mmHg 84%
    09:00 +15°C° 0 mm 6 mps 753 mmHg 81%
    10:00 +16°C° 0.2 mm 6 mps 753 mmHg 80%
    11:00 +16°C° 0.2 mm 6 mps 753 mmHg 79%
    12:00 +17°C° 0.2 mm 7 mps 753 mmHg 77%
    13:00 +17°C° 0.2 mm 7 mps 753 mmHg 78%
    14:00 +17°C° 0.2 mm 6 mps 753 mmHg 78%
    15:00 +17°C° 0.2 mm 6 mps 752 mmHg 78%
    16:00 +16°C° 0.2 mm 5 mps 752 mmHg 81%
    17:00 +16°C° 0.2 mm 5 mps 752 mmHg 84%
    18:00 +15°C° 0.2 mm 4 mps 752 mmHg 87%
    19:00 +14°C° 0 mm 3 mps 752 mmHg 89%
    20:00 +13°C° 0 mm 3 mps 752 mmHg 91%
    21:00 +12°C° 0 mm 3 mps 753 mmHg 92%
    22:00 +13°C° 0 mm 2 mps 753 mmHg 93%
    23:00 +12°C° 0 mm 2 mps 753 mmHg 94%

    Day after tomorrow, 18 June, Tuesday

    Time Temperature Precipitation Wind Pressure Humidity
    00:00 +12°C° 0 mm 2 mps 752 mmHg 95%
    01:00 +11°C° 0 mm 1 mps 752 mmHg 95%
    02:00 +11°C° 0 mm 1 mps 752 mmHg 96%
    03:00 +11°C° 0 mm 1 mps 752 mmHg 96%
    04:00 +12°C° 0 mm 1 mps 752 mmHg 95%
    05:00 +12°C° 0 mm 1 mps 752 mmHg 94%
    06:00 +13°C° 0 mm 1 mps 752 mmHg 94%
    07:00 +14°C° 0 mm 1 mps 752 mmHg 89%
    08:00 +15°C° 0 mm 1 mps 752 mmHg 85%
    09:00 +16°C° 0 mm 2 mps 752 mmHg 81%
    10:00 +17°C° 0 mm 2 mps 752 mmHg 78%
    11:00 +17°C° 0 mm 2 mps 751 mmHg 75%
    12:00 +18°C° 0 mm 2 mps 751 mmHg 72%
    13:00 +19°C° 0.2 mm 1 mps 751 mmHg 76%
    14:00 +18°C° 0.2 mm 1 mps 750 mmHg 81%
    15:00 +16°C° 0.2 mm 0 mps 750 mmHg 85%
    16:00 +16°C° 1.1 mm 1 mps 750 mmHg 89%
    17:00 +15°C° 1.1 mm 1 mps 750 mmHg 92%
    18:00 +15°C° 1.1 mm 1 mps 749 mmHg 95%
    19:00 +14°C° 0.8 mm 1 mps 749 mmHg 96%
    20:00 +14°C° 0.8 mm 1 mps 749 mmHg 96%
    21:00 +14°C° 0.8 mm 1 mps 749 mmHg 96%
    22:00 +13°C° 0.1 mm 1 mps 749 mmHg 95%
    23:00 +13°C° 0.1 mm 1 mps 748 mmHg 95%

    19 June, Wednesday

    Time Temperature Precipitation Wind Pressure Humidity
    00:00 +13°C° 0.1 mm 1 mps 748 mmHg 95%
    01:00 +13°C° 0 mm 1 mps 748 mmHg 95%
    02:00 +13°C° 0 mm 1 mps 748 mmHg 95%
    03:00 +13°C° 0 mm 2 mps 747 mmHg 95%
    04:00 +13°C° 0 mm 2 mps 747 mmHg 95%
    05:00 +13°C° 0 mm 2 mps 747 mmHg 94%
    06:00 +13°C° 0 mm 3 mps 746 mmHg 94%
    07:00 +14°C° 0.2 mm 2 mps 746 mmHg 94%
    08:00 +15°C° 0.2 mm 2 mps 746 mmHg 94%
    09:00 +15°C° 0.2 mm 2 mps 746 mmHg 94%
    10:00 +14°C° 0.4 mm 3 mps 746 mmHg 94%
    11:00 +14°C° 0.4 mm 3 mps 746 mmHg 95%
    12:00 +14°C° 0.4 mm 3 mps 746 mmHg 95%
    13:00 +14°C° 1.5 mm 3 mps 746 mmHg 95%
    14:00 +14°C° 1.5 mm 3 mps 745 mmHg 95%
    15:00 +14°C° 1.5 mm 4 mps 745 mmHg 96%
    16:00 +14°C° 0.2 mm 4 mps 746 mmHg 94%
    17:00 +14°C° 0.2 mm 3 mps 746 mmHg 92%
    18:00 +16°C° 0.2 mm 3 mps 746 mmHg 90%
    19:00 +14°C° 0.1 mm 3 mps 746 mmHg 91%
    20:00 +13°C° 0.1 mm 3 mps 747 mmHg 92%
    21:00 +13°C° 0.1 mm 2 mps 747 mmHg 93%
    22:00 +12°C° 0 mm 2 mps 747 mmHg 92%
    23:00 +10°C° 0 mm 2 mps 748 mmHg 92%

    20 June, Thursday

    Time Temperature Precipitation Wind Pressure Humidity
    00:00 +9°C° 0 mm 2 mps 748 mmHg 91%
    01:00 +9°C° 0 mm 2 mps 748 mmHg 92%
    02:00 +9°C° 0 mm 2 mps 748 mmHg 92%
    03:00 +9°C° 0 mm 2 mps 748 mmHg 93%
    04:00 +9°C° 0 mm 2 mps 749 mmHg 93%
    05:00 +10°C° 0 mm 2 mps 749 mmHg 93%
    06:00 +12°C° 0 mm 2 mps 749 mmHg 92%
    07:00 +13°C° 0 mm 2 mps 749 mmHg 87%
    08:00 +13°C° 0 mm 3 mps 750 mmHg 81%
    09:00 +16°C° 0 mm 3 mps 750 mmHg 75%
    10:00 +16°C° 0.1 mm 3 mps 750 mmHg 72%
    11:00 +17°C° 0.1 mm 4 mps 750 mmHg 69%
    12:00 +17°C° 0.1 mm 4 mps 750 mmHg 66%
    13:00 +18°C° 0.1 mm 4 mps 750 mmHg 66%
    14:00 +18°C° 0.1 mm 4 mps 751 mmHg 65%
    15:00 +17°C° 0.1 mm 5 mps 751 mmHg 65%
    16:00 +16°C° 0 mm 5 mps 751 mmHg 68%
    17:00 +15°C° 0 mm 4 mps 751 mmHg 71%
    18:00 +14°C° 0 mm 4 mps 751 mmHg 74%
    19:00 +13°C° 0 mm 4 mps 751 mmHg 79%
    20:00 +11°C° 0 mm 3 mps 751 mmHg 84%
    21:00 +10°C° 0 mm 3 mps 751 mmHg 89%
    22:00 +10°C° 0 mm 3 mps 751 mmHg 90%
    23:00 +9°C° 0 mm 2 mps 751 mmHg 91%

    21 June, Friday

    Time Temperature Precipitation Wind Pressure Humidity
    00:00 +9°C° 0 mm 2 mps 751 mmHg 92%
    01:00 +9°C° 0 mm 2 mps 751 mmHg 92%
    02:00 +8°C° 0 mm 2 mps 751 mmHg 92%
    03:00 +8°C° 0 mm 2 mps 751 mmHg 92%
    04:00 +9°C° 0 mm 2 mps 752 mmHg 91%
    05:00 +9°C° 0 mm 3 mps 752 mmHg 89%
    06:00 +10°C° 0 mm 3 mps 752 mmHg 87%
    07:00 +12°C° 0.1 mm 3 mps 752 mmHg 83%
    08:00 +13°C° 0.1 mm 4 mps 753 mmHg 79%
    09:00 +14°C° 0.1 mm 4 mps 753 mmHg 75%
    10:00 +15°C° 0.2 mm 4 mps 753 mmHg 73%
    11:00 +17°C° 0.2 mm 4 mps 753 mmHg 71%
    12:00 +17°C° 0.2 mm 4 mps 753 mmHg 69%
    13:00 +17°C° 0.2 mm 4 mps 753 mmHg 68%
    14:00 +18°C° 0.2 mm 4 mps 753 mmHg 67%
    15:00 +18°C° 0.2 mm 4 mps 753 mmHg 67%
    16:00 +17°C° 0.1 mm 4 mps 753 mmHg 69%
    17:00 +17°C° 0.1 mm 3 mps 753 mmHg 72%
    18:00 +16°C° 0.1 mm 3 mps 753 mmHg 75%
    19:00 +14°C° 0 mm 3 mps 754 mmHg 79%
    20:00 +13°C° 0 mm 2 mps 754 mmHg 84%
    21:00 +12°C° 0 mm 2 mps 755 mmHg 88%
    22:00 +10°C° 0 mm 2 mps 755 mmHg 88%
    23:00 +9°C° 0 mm 2 mps 755 mmHg 88%
    Show more